Le nostre stazioni meteo in Italia

Pubblicità
Il mio iltempo24.it
Ferrara, Italia (16138): Temperatura & dewpoint: 20.08.2019 12:00:00 - 26.08.2019 12:00:00 (CEST)Ferrara, Italia (16138): velocità del vento: 20.08.2019 12:00:00 - 26.08.2019 12:00:00 (CEST)Ferrara, Italia (16138): direzione del vento: 20.08.2019 12:00:00 - 26.08.2019 12:00:00 (CEST)Ferrara, Italia (16138): reduced air pressure: 20.08.2019 12:00:00 - 26.08.2019 12:00:00 (CEST)Ferrara, Italia (16138): visibility: 20.08.2019 12:00:00 - 26.08.2019 12:00:00 (CEST)
Data & Tempo tt [°C] td [°C] ff [km/h] ff [kn] dd ppp [hPa] vv [km]
26.08.2019 12:00:00 - - - - - - -
26.08.2019 11:00:00 28,0 20,6 0 0 N 1018,4 10
26.08.2019 10:00:00 25,0 20,0 - - - - 10
26.08.2019 09:00:00 22,0 20,0 0 0 N - 10
26.08.2019 08:00:00 20,2 19,0 0 0 N 1017,6 6
26.08.2019 07:00:00 - - - - - - -
26.08.2019 06:00:00 - - - - - - -
26.08.2019 05:00:00 - - - - - - -
26.08.2019 04:00:00 - - - - - - -
26.08.2019 03:00:00 - - - - - - -
26.08.2019 02:00:00 - - - - - - -
26.08.2019 01:00:00 - - - - - - -
26.08.2019 00:00:00 - - - - - - -
25.08.2019 23:00:00 - - - - - - -
25.08.2019 22:00:00 - - - - - - -
25.08.2019 21:00:00 - - - - - - -
25.08.2019 20:00:00 29,2 18,0 0 0 N 1016,8 15
25.08.2019 19:00:00 30,0 18,0 - - - - 10
25.08.2019 18:00:00 31,0 18,0 - - - - 10
25.08.2019 17:00:00 31,4 17,7 0 0 N 1016,6 15
25.08.2019 16:00:00 31,0 18,0 - - - - 10
25.08.2019 15:00:00 31,0 18,0 - - - - 10
25.08.2019 14:00:00 31,4 19,4 0 0 N 1017,7 15
25.08.2019 13:00:00 30,0 19,0 - - - - 10
25.08.2019 12:00:00 29,0 20,0 - - - - 10
25.08.2019 11:00:00 26,4 21,0 0 0 N 1018,5 10
25.08.2019 10:00:00 23,0 20,0 - - - - 10
25.08.2019 09:00:00 21,0 19,0 - - - - 10
25.08.2019 08:00:00 18,8 18,2 0 0 N 1018,0 10
25.08.2019 07:00:00 - - - - - - -
25.08.2019 06:00:00 - - - - - - -
25.08.2019 05:00:00 - - - - - - -
25.08.2019 04:00:00 - - - - - - -
25.08.2019 03:00:00 - - - - - - -
25.08.2019 02:00:00 - - - - - - -
25.08.2019 01:00:00 - - - - - - -
25.08.2019 00:00:00 - - - - - - -
24.08.2019 23:00:00 - - - - - - -
24.08.2019 22:00:00 - - - - - - -
24.08.2019 21:00:00 - - - - - - -
24.08.2019 20:00:00 28,4 19,6 0 0 N 1017,0 10
24.08.2019 19:00:00 30,0 19,0 5 3 S - 10
24.08.2019 18:00:00 31,0 19,0 0 0 N - 10
24.08.2019 17:00:00 31,8 18,4 0 0 N 1017,2 15
24.08.2019 16:00:00 31,0 19,0 - - - - 10
24.08.2019 15:00:00 32,0 20,0 - - - - 10
24.08.2019 14:00:00 31,4 20,0 5 3 SSO 1018,7 15
24.08.2019 13:00:00 31,0 20,0 - - - - 10
24.08.2019 12:00:00 30,0 20,0 - - - - 10
24.08.2019 11:00:00 28,0 20,0 5 3 S 1019,8 15
24.08.2019 10:00:00 25,0 21,0 - - - - 10
24.08.2019 09:00:00 23,0 21,0 - - - - 6
24.08.2019 08:00:00 20,4 19,1 0 0 N 1019,8 4,0
24.08.2019 07:00:00 - - - - - - -
24.08.2019 06:00:00 - - - - - - -
24.08.2019 05:00:00 - - - - - - -
24.08.2019 04:00:00 - - - - - - -
24.08.2019 03:00:00 - - - - - - -
24.08.2019 02:00:00 - - - - - - -
24.08.2019 01:00:00 - - - - - - -
24.08.2019 00:00:00 - - - - - - -
23.08.2019 23:00:00 - - - - - - -
23.08.2019 22:00:00 - - - - - - -
23.08.2019 21:00:00 - - - - - - -
23.08.2019 20:00:00 25,6 19,0 0 0 N 1020,3 10
23.08.2019 19:00:00 26,0 19,0 - - - - 10
23.08.2019 18:00:00 27,0 18,0 - - - - 10
23.08.2019 17:00:00 27,4 18,4 0 0 N 1020,6 10
23.08.2019 16:00:00 28,0 20,0 - - - - 10
23.08.2019 15:00:00 28,0 20,0 - - - - 10
23.08.2019 14:00:00 28,0 21,1 0 0 N 1021,4 10
23.08.2019 13:00:00 27,0 21,0 - - - - 10
23.08.2019 12:00:00 25,0 20,0 - - - - 10
23.08.2019 11:00:00 23,4 19,8 8 4 N 1022,1 10
23.08.2019 10:00:00 23,0 21,0 - - - - 10
23.08.2019 09:00:00 23,0 19,0 - - - - 10
23.08.2019 08:00:00 21,2 18,4 0 0 N 1021,3 10
23.08.2019 07:00:00 - - - - - - -
23.08.2019 06:00:00 - - - - - - -
23.08.2019 05:00:00 - - - - - - -
23.08.2019 04:00:00 - - - - - - -
23.08.2019 03:00:00 - - - - - - -
23.08.2019 02:00:00 - - - - - - -
23.08.2019 01:00:00 - - - - - - -
23.08.2019 00:00:00 - - - - - - -
22.08.2019 23:00:00 - - - - - - -
22.08.2019 22:00:00 - - - - - - -
22.08.2019 21:00:00 - - - - - - -
22.08.2019 20:00:00 24,2 17,5 0 0 N 1020,1 10
22.08.2019 19:00:00 25,0 17,0 - - - - 10
22.08.2019 18:00:00 25,0 18,0 - - - - 10
22.08.2019 17:00:00 25,8 18,5 0 0 N 1020,3 10
22.08.2019 16:00:00 27,0 19,0 - - - - 10
22.08.2019 15:00:00 27,0 20,0 - - - - 10
22.08.2019 14:00:00 27,0 20,1 0 0 N 1021,2 10
22.08.2019 13:00:00 26,0 21,0 - - - - 10
22.08.2019 12:00:00 23,0 19,0 - - - - 10
22.08.2019 11:00:00 23,2 19,4 8 4 N 1021,1 10
22.08.2019 10:00:00 22,0 20,0 - - - - 10
22.08.2019 09:00:00 21,0 19,0 - - - - 10
22.08.2019 08:00:00 19,6 18,1 5 3 N 1020,3 10
22.08.2019 07:00:00 - - - - - - -
22.08.2019 06:00:00 - - - - - - -
22.08.2019 05:00:00 - - - - - - -
22.08.2019 04:00:00 - - - - - - -
22.08.2019 03:00:00 - - - - - - -
22.08.2019 02:00:00 - - - - - - -
22.08.2019 01:00:00 - - - - - - -
22.08.2019 00:00:00 - - - - - - -
21.08.2019 23:00:00 - - - - - - -
21.08.2019 22:00:00 - - - - - - -
21.08.2019 21:00:00 - - - - - - -
21.08.2019 20:00:00 28,8 19,2 0 0 N 1017,2 10
21.08.2019 19:00:00 31,0 20,0 - - - - 10
21.08.2019 18:00:00 32,0 19,0 - - - - 10
21.08.2019 17:00:00 32,6 20,2 0 0 N 1017,0 10
21.08.2019 16:00:00 33,0 22,0 - - - - 10
21.08.2019 15:00:00 33,0 23,0 - - - - 10
21.08.2019 14:00:00 31,0 22,6 0 0 N 1017,6 10
21.08.2019 13:00:00 31,0 23,0 - - - - 10
21.08.2019 12:00:00 29,0 22,0 - - - - 10
21.08.2019 11:00:00 28,8 22,6 0 0 N 1017,8 10
21.08.2019 10:00:00 27,0 22,0 - - - - 8
21.08.2019 09:00:00 24,0 22,0 - - - - 2,0
21.08.2019 08:00:00 23,2 22,2 0 0 N 1017,1 0,5
21.08.2019 07:00:00 - - - - - - -
21.08.2019 06:00:00 - - - - - - -
21.08.2019 05:00:00 - - - - - - -
21.08.2019 04:00:00 - - - - - - -
21.08.2019 03:00:00 - - - - - - -
21.08.2019 02:00:00 - - - - - - -
21.08.2019 01:00:00 - - - - - - -
21.08.2019 00:00:00 - - - - - - -
20.08.2019 23:00:00 - - - - - - -
20.08.2019 22:00:00 - - - - - - -
20.08.2019 21:00:00 - - - - - - -
20.08.2019 20:00:00 29,0 21,5 0 0 N 1015,6 10
20.08.2019 19:00:00 31,0 22,0 - - - - 10
20.08.2019 18:00:00 32,0 22,0 - - - - 10
20.08.2019 17:00:00 33,6 21,4 0 0 N 1016,0 10
20.08.2019 16:00:00 34,0 21,0 - - - - 10
20.08.2019 15:00:00 34,0 21,0 - - - - 10
20.08.2019 14:00:00 33,4 20,6 0 0 N 1016,8 10
20.08.2019 13:00:00 33,0 21,0 - - - - 10
20.08.2019 12:00:00 31,0 22,0 - - - - 10

tt = Temperatura
td = dewpoint
ff = velocità del vento
dd = direzione del vento
ppp = reduced air pressure
vv = visibility

Stazioni seguenti

WeatherPro
AMSI
MeteoEarth